SWA509 KBWI-KCLE

Flight info

Callsign SWA509
Flight time 0h 54m
Altitude 38000
Route LINSE2 JERES J211 JST UPPRR TRYBE4
Aircraft B737/M-SDE2E3FGHIRWXY/LB1

Departure

Time 2026-05-03 20:53
Airport Baltimore/Washington International Thurgood Marshall Airport (KBWI)

Arrival

Time 2026-05-03 21:47
Airport Cleveland Hopkins International Airport (KCLE)
Time Latitude Longitude Altitude Speed Heading
2026-05-03 20:35 39.18098 -76.67403 155 ft 0 kts 54°
2026-05-03 20:43 39.18095 -76.67409 155 ft 4 kts 56°
2026-05-03 20:44 39.18082 -76.67439 152 ft 4 kts 70°
2026-05-03 20:44 39.18077 -76.67473 148 ft 5 kts 95°
2026-05-03 20:44 39.18085 -76.67501 146 ft 4 kts 142°
2026-05-03 20:44 39.18087 -76.67503 146 ft 3 kts 144°
2026-05-03 20:47 39.18086 -76.67502 146 ft 1 kts 143°
2026-05-03 20:47 39.18064 -76.67481 146 ft 6 kts 144°
2026-05-03 20:48 39.18022 -76.67453 145 ft 8 kts 173°
2026-05-03 20:48 39.17953 -76.67484 142 ft 12 kts 158°
2026-05-03 20:48 39.17884 -76.67421 143 ft 12 kts 144°
2026-05-03 20:48 39.17806 -76.67349 145 ft 19 kts 145°
2026-05-03 20:49 39.17663 -76.67215 147 ft 26 kts 144°
2026-05-03 20:49 39.17523 -76.67080 148 ft 24 kts 134°
2026-05-03 20:49 39.17466 -76.66888 151 ft 23 kts 94°
2026-05-03 20:49 39.17455 -76.66687 152 ft 22 kts 94°
2026-05-03 20:50 39.17453 -76.66504 153 ft 19 kts 64°
2026-05-03 20:50 39.17529 -76.66385 152 ft 18 kts 103°
2026-05-03 20:50 39.17464 -76.66250 153 ft 19 kts 114°
2026-05-03 20:50 39.17448 -76.66074 147 ft 20 kts 94°
2026-05-03 20:51 39.17438 -76.65896 144 ft 20 kts 94°
2026-05-03 20:51 39.17428 -76.65724 140 ft 19 kts 94°
2026-05-03 20:51 39.17418 -76.65575 141 ft 9 kts 101°
2026-05-03 20:51 39.17373 -76.65521 140 ft 10 kts 171°
2026-05-03 20:52 39.17300 -76.65533 140 ft 11 kts 203°
2026-05-03 20:52 39.17283 -76.65590 141 ft 0 kts 273°
2026-05-03 20:52 39.17286 -76.65650 141 ft 32 kts 274°
2026-05-03 20:52 39.17321 -76.66260 150 ft 102 kts 274°
2026-05-03 20:53 39.17387 -76.67423 204 ft 153 kts 275°
2026-05-03 20:53 39.17475 -76.68807 939 ft 153 kts 276°
2026-05-03 20:53 39.17552 -76.70169 1852 ft 151 kts 276°
2026-05-03 20:53 39.17622 -76.71535 2582 ft 161 kts 277°
2026-05-03 20:54 39.17710 -76.73078 3127 ft 183 kts 275°
2026-05-03 20:54 39.17935 -76.76784 3750 ft 236 kts 277°
2026-05-03 20:54 39.18114 -76.78934 4493 ft 246 kts 278°
2026-05-03 20:55 39.18300 -76.81124 5483 ft 245 kts 278°
2026-05-03 20:55 39.18487 -76.83332 6406 ft 250 kts 278°
2026-05-03 20:55 39.18676 -76.85553 7347 ft 251 kts 279°
2026-05-03 20:55 39.18870 -76.87810 8237 ft 255 kts 279°
2026-05-03 20:56 39.19067 -76.90102 9164 ft 260 kts 279°
2026-05-03 20:56 39.19266 -76.92436 10146 ft 263 kts 279°
2026-05-03 20:56 39.19471 -76.94845 10675 ft 282 kts 279°
2026-05-03 20:56 39.19703 -76.97482 10906 ft 308 kts 280°
2026-05-03 20:57 39.20078 -77.00244 11565 ft 316 kts 283°
2026-05-03 20:57 39.20531 -77.03027 12471 ft 318 kts 283°
2026-05-03 20:57 39.20985 -77.05821 13408 ft 320 kts 283°
2026-05-03 20:57 39.21430 -77.08642 14296 ft 322 kts 283°
2026-05-03 20:58 39.21895 -77.11479 15151 ft 324 kts 287°
2026-05-03 20:58 39.22825 -77.14097 16002 ft 328 kts 301°
2026-05-03 20:58 39.24355 -77.16370 16859 ft 335 kts 314°
2026-05-03 20:58 39.26105 -77.18336 17667 ft 341 kts 316°
2026-05-03 20:59 39.27944 -77.20307 18461 ft 346 kts 316°
2026-05-03 20:59 39.29802 -77.22298 19201 ft 348 kts 316°
2026-05-03 20:59 39.31658 -77.24319 19981 ft 350 kts 315°
2026-05-03 20:59 39.33514 -77.26366 20752 ft 352 kts 315°
2026-05-03 21:00 39.35377 -77.28432 21469 ft 355 kts 315°
2026-05-03 21:00 39.36013 -77.29134 21709 ft 356 kts 316°
2026-05-03 21:00 39.39660 -77.31811 22876 ft 370 kts 331°
2026-05-03 21:00 39.42051 -77.33112 23562 ft 374 kts 331°
2026-05-03 21:01 39.44460 -77.34416 24120 ft 377 kts 331°
2026-05-03 21:01 39.46885 -77.35741 24707 ft 379 kts 331°
2026-05-03 21:01 39.49320 -77.37088 25281 ft 381 kts 330°
2026-05-03 21:01 39.51758 -77.38449 25829 ft 383 kts 330°
2026-05-03 21:02 39.54218 -77.39828 26357 ft 386 kts 330°
2026-05-03 21:02 39.56663 -77.41202 26884 ft 389 kts 330°
2026-05-03 21:02 39.59155 -77.42604 27368 ft 392 kts 330°
2026-05-03 21:02 39.61627 -77.44092 27829 ft 390 kts 323°
2026-05-03 21:03 39.63706 -77.46276 28288 ft 383 kts 310°
2026-05-03 21:03 39.65325 -77.48988 28808 ft 380 kts 298°
2026-05-03 21:03 39.66456 -77.52090 29254 ft 381 kts 291°
2026-05-03 21:03 39.67441 -77.55306 29688 ft 384 kts 290°
2026-05-03 21:04 39.68396 -77.58558 30105 ft 386 kts 290°
2026-05-03 21:04 39.69338 -77.61776 30513 ft 386 kts 290°
2026-05-03 21:04 39.70309 -77.65057 31082 ft 382 kts 290°
2026-05-03 21:04 39.71254 -77.68214 31652 ft 378 kts 290°
2026-05-03 21:05 39.72209 -77.71381 32139 ft 376 kts 290°
2026-05-03 21:05 39.73165 -77.74539 32585 ft 375 kts 290°
2026-05-03 21:05 39.74121 -77.77693 33023 ft 374 kts 290°
2026-05-03 21:05 39.75071 -77.80825 33504 ft 372 kts 289°
2026-05-03 21:06 39.76015 -77.83943 33969 ft 370 kts 289°
2026-05-03 21:06 39.76957 -77.87058 34285 ft 370 kts 289°
2026-05-03 21:06 39.77902 -77.90188 34465 ft 373 kts 289°
2026-05-03 21:06 39.78852 -77.93340 34667 ft 376 kts 289°
2026-05-03 21:07 39.79809 -77.96513 34923 ft 377 kts 289°
2026-05-03 21:07 39.80764 -77.99687 35179 ft 378 kts 288°
2026-05-03 21:07 39.81724 -78.02880 35339 ft 381 kts 289°
2026-05-03 21:07 39.82693 -78.06098 35546 ft 383 kts 289°
2026-05-03 21:08 39.83862 -78.09224 35781 ft 386 kts 296°
2026-05-03 21:08 39.85303 -78.12145 35997 ft 392 kts 302°
2026-05-03 21:08 39.87083 -78.14931 36185 ft 396 kts 305°
2026-05-03 21:08 39.88889 -78.17652 36399 ft 398 kts 306°
2026-05-03 21:09 39.90091 -78.19460 36532 ft 399 kts 306°
2026-05-03 21:09 39.92501 -78.23108 36793 ft 402 kts 306°
2026-05-03 21:09 39.94316 -78.25878 37015 ft 403 kts 306°
2026-05-03 21:09 39.96134 -78.28662 37213 ft 404 kts 306°
2026-05-03 21:10 39.97959 -78.31464 37405 ft 406 kts 306°
2026-05-03 21:10 39.99195 -78.33362 37542 ft 407 kts 306°
2026-05-03 21:10 40.01010 -78.36140 37761 ft 407 kts 306°
2026-05-03 21:10 40.02852 -78.38954 37961 ft 409 kts 306°
2026-05-03 21:11 40.06574 -78.44651 38029 ft 416 kts 306°
2026-05-03 21:11 40.10353 -78.50445 38029 ft 420 kts 306°
2026-05-03 21:12 40.14144 -78.56269 38033 ft 420 kts 306°
2026-05-03 21:12 40.17929 -78.62097 38033 ft 420 kts 306°
2026-05-03 21:13 40.21706 -78.67923 38017 ft 419 kts 306°
2026-05-03 21:13 40.25452 -78.73714 38014 ft 419 kts 306°
2026-05-03 21:14 40.29213 -78.79539 38010 ft 418 kts 306°
2026-05-03 21:14 40.33009 -78.85313 38015 ft 419 kts 308°
2026-05-03 21:15 40.37015 -78.90861 38015 ft 419 kts 310°
2026-05-03 21:15 40.41065 -78.96374 38016 ft 419 kts 310°
2026-05-03 21:16 40.45087 -79.01898 38031 ft 418 kts 310°
2026-05-03 21:16 40.49092 -79.07443 38015 ft 418 kts 309°
2026-05-03 21:17 40.53059 -79.12956 38019 ft 417 kts 309°
2026-05-03 21:17 40.57071 -79.18544 38008 ft 418 kts 309°
2026-05-03 21:18 40.61036 -79.24076 38016 ft 418 kts 309°
2026-05-03 21:18 40.65030 -79.29659 38026 ft 418 kts 309°
2026-05-03 21:19 40.69018 -79.35243 38034 ft 418 kts 310°
2026-05-03 21:19 40.73002 -79.40831 38045 ft 418 kts 309°
2026-05-03 21:20 40.76985 -79.46430 38045 ft 418 kts 310°
2026-05-03 21:20 40.80961 -79.52029 38048 ft 418 kts 309°
2026-05-03 21:21 40.84922 -79.57619 37547 ft 424 kts 310°
2026-05-03 21:21 40.86934 -79.60463 36970 ft 422 kts 310°
2026-05-03 21:21 40.88923 -79.63272 36564 ft 414 kts 310°
2026-05-03 21:22 40.90881 -79.66040 36049 ft 410 kts 310°
2026-05-03 21:22 40.92816 -79.68780 35565 ft 405 kts 310°
2026-05-03 21:22 40.94732 -79.71496 35074 ft 401 kts 310°
2026-05-03 21:22 40.96620 -79.74176 34602 ft 396 kts 310°
2026-05-03 21:23 40.98489 -79.76831 34126 ft 392 kts 310°
2026-05-03 21:23 41.00340 -79.79463 33561 ft 388 kts 310°
2026-05-03 21:23 41.02169 -79.82067 33061 ft 383 kts 310°
2026-05-03 21:23 41.03969 -79.84630 32605 ft 377 kts 310°
2026-05-03 21:24 41.05746 -79.87164 32143 ft 372 kts 309°
2026-05-03 21:24 41.07472 -79.89626 31685 ft 367 kts 309°
2026-05-03 21:24 41.09196 -79.92088 31237 ft 362 kts 309°
2026-05-03 21:24 41.10896 -79.94519 30783 ft 357 kts 309°
2026-05-03 21:25 41.12577 -79.96924 30348 ft 353 kts 309°
2026-05-03 21:25 41.14234 -79.99297 29879 ft 349 kts 309°
2026-05-03 21:25 41.15870 -80.01641 29418 ft 343 kts 309°
2026-05-03 21:25 41.17481 -80.03952 28943 ft 338 kts 309°
2026-05-03 21:26 41.19068 -80.06230 28482 ft 333 kts 309°
2026-05-03 21:26 41.20632 -80.08476 28035 ft 329 kts 309°
2026-05-03 21:26 41.22179 -80.10700 27578 ft 325 kts 310°
2026-05-03 21:26 41.23698 -80.12903 27125 ft 321 kts 307°
2026-05-03 21:27 41.24891 -80.15371 26693 ft 316 kts 295°
2026-05-03 21:27 41.25746 -80.18003 26254 ft 313 kts 292°
2026-05-03 21:27 41.26540 -80.20688 25819 ft 311 kts 291°
2026-05-03 21:27 41.27315 -80.23360 25390 ft 309 kts 291°
2026-05-03 21:28 41.28089 -80.26017 24955 ft 307 kts 291°
2026-05-03 21:28 41.28865 -80.28659 24519 ft 306 kts 292°
2026-05-03 21:28 41.29323 -80.30210 24268 ft 305 kts 292°
2026-05-03 21:28 41.30100 -80.32831 23841 ft 304 kts 292°
2026-05-03 21:29 41.30877 -80.35445 23364 ft 304 kts 292°
2026-05-03 21:29 41.31654 -80.38050 22875 ft 302 kts 292°
2026-05-03 21:29 41.32427 -80.40645 22419 ft 300 kts 292°
2026-05-03 21:29 41.33193 -80.43213 21999 ft 298 kts 292°
2026-05-03 21:30 41.33953 -80.45766 21560 ft 295 kts 292°
2026-05-03 21:30 41.34706 -80.48295 21144 ft 293 kts 292°
2026-05-03 21:30 41.35455 -80.50813 20717 ft 292 kts 292°
2026-05-03 21:30 41.36201 -80.53324 20291 ft 291 kts 292°
2026-05-03 21:31 41.36944 -80.55825 19870 ft 289 kts 291°
2026-05-03 21:31 41.37682 -80.58313 19462 ft 288 kts 291°
2026-05-03 21:31 41.38416 -80.60786 19054 ft 287 kts 291°
2026-05-03 21:31 41.39136 -80.63219 18661 ft 286 kts 291°
2026-05-03 21:32 41.39864 -80.65678 18251 ft 285 kts 291°
2026-05-03 21:32 41.40590 -80.68137 17805 ft 284 kts 291°
2026-05-03 21:32 41.41309 -80.70580 17377 ft 282 kts 291°
2026-05-03 21:32 41.42022 -80.73011 16960 ft 281 kts 291°
2026-05-03 21:33 41.42735 -80.75444 16523 ft 280 kts 291°
2026-05-03 21:33 41.43439 -80.77849 16131 ft 280 kts 291°
2026-05-03 21:33 41.44142 -80.80254 15750 ft 284 kts 291°
2026-05-03 21:33 41.44866 -80.82734 15347 ft 291 kts 291°
2026-05-03 21:34 41.45606 -80.85268 14910 ft 294 kts 291°
2026-05-03 21:34 41.46344 -80.87799 14481 ft 292 kts 290°
2026-05-03 21:34 41.47079 -80.90320 14055 ft 291 kts 290°
2026-05-03 21:34 41.47811 -80.92833 13618 ft 290 kts 290°
2026-05-03 21:35 41.48537 -80.95331 13142 ft 288 kts 290°
2026-05-03 21:35 41.49260 -80.97816 12696 ft 286 kts 290°
2026-05-03 21:35 41.49974 -81.00277 12253 ft 284 kts 290°
2026-05-03 21:35 41.50684 -81.02723 11835 ft 281 kts 290°
2026-05-03 21:36 41.51373 -81.05165 11376 ft 281 kts 285°
2026-05-03 21:36 41.51593 -81.07746 10798 ft 284 kts 268°
2026-05-03 21:36 41.51487 -81.10377 10316 ft 285 kts 266°
2026-05-03 21:36 41.51376 -81.12959 10213 ft 271 kts 266°
2026-05-03 21:37 41.51270 -81.15420 10068 ft 260 kts 266°
2026-05-03 21:37 41.51168 -81.17799 9794 ft 255 kts 266°
2026-05-03 21:37 41.51066 -81.20154 9443 ft 253 kts 266°
2026-05-03 21:37 41.50964 -81.22488 9080 ft 251 kts 266°
2026-05-03 21:38 41.50862 -81.24807 8718 ft 249 kts 265°
2026-05-03 21:38 41.50763 -81.27081 8366 ft 248 kts 265°
2026-05-03 21:38 41.50661 -81.29373 8012 ft 246 kts 265°
2026-05-03 21:38 41.50560 -81.31648 7655 ft 245 kts 265°
2026-05-03 21:39 41.50460 -81.33907 7320 ft 243 kts 265°
2026-05-03 21:39 41.50360 -81.36148 6981 ft 242 kts 265°
2026-05-03 21:39 41.50259 -81.38389 6645 ft 241 kts 265°
2026-05-03 21:39 41.50158 -81.40625 6297 ft 241 kts 264°
2026-05-03 21:40 41.50064 -81.42854 5995 ft 238 kts 266°
2026-05-03 21:40 41.50086 -81.45025 5834 ft 231 kts 269°
2026-05-03 21:40 41.50146 -81.47087 5701 ft 230 kts 269°
2026-05-03 21:40 41.50208 -81.49226 5558 ft 232 kts 270°
2026-05-03 21:41 41.50265 -81.51394 5407 ft 233 kts 269°
2026-05-03 21:41 41.50317 -81.53510 5255 ft 224 kts 269°
2026-05-03 21:41 41.50366 -81.55550 5109 ft 216 kts 269°
2026-05-03 21:41 41.50411 -81.57496 4962 ft 209 kts 268°
2026-05-03 21:42 41.50455 -81.59417 4764 ft 204 kts 268°
2026-05-03 21:42 41.50497 -81.61289 4615 ft 198 kts 268°
2026-05-03 21:42 41.50537 -81.63104 4460 ft 194 kts 269°
2026-05-03 21:42 41.50577 -81.64895 4232 ft 193 kts 268°
2026-05-03 21:43 41.50481 -81.66647 4045 ft 184 kts 252°
2026-05-03 21:43 41.50091 -81.68215 3989 ft 172 kts 251°
2026-05-03 21:43 41.49735 -81.69697 3846 ft 165 kts 251°
2026-05-03 21:43 41.49387 -81.71154 3617 ft 164 kts 251°
2026-05-03 21:44 41.48993 -81.72578 3276 ft 165 kts 241°
2026-05-03 21:44 41.48373 -81.73874 2949 ft 166 kts 236°
2026-05-03 21:44 41.47697 -81.75107 2723 ft 163 kts 233°
2026-05-03 21:44 41.46988 -81.76258 2493 ft 155 kts 232°
2026-05-03 21:45 41.46323 -81.77314 2269 ft 143 kts 232°
2026-05-03 21:45 41.45715 -81.78279 2088 ft 131 kts 232°
2026-05-03 21:45 41.45138 -81.79190 1926 ft 130 kts 231°
2026-05-03 21:45 41.44555 -81.80113 1751 ft 130 kts 232°
2026-05-03 21:46 41.43980 -81.81027 1566 ft 131 kts 231°
2026-05-03 21:46 41.43415 -81.81921 1419 ft 122 kts 233°
2026-05-03 21:46 41.42894 -81.82745 1248 ft 116 kts 233°
2026-05-03 21:46 41.42371 -81.83577 1045 ft 115 kts 231°
2026-05-03 21:47 41.41873 -81.84376 867 ft 110 kts 229°
2026-05-03 21:47 41.41381 -81.85150 755 ft 104 kts 230°
2026-05-03 21:47 41.40979 -81.85784 751 ft 72 kts 230°
2026-05-03 21:47 41.40793 -81.86078 752 ft 35 kts 230°
2026-05-03 21:48 41.40682 -81.86220 753 ft 0 kts 212°
2026-05-03 21:48 41.40668 -81.86232 753 ft 6 kts 210°
2026-05-03 21:48 41.40567 -81.86248 750 ft 20 kts 157°
2026-05-03 21:48 41.40459 -81.86133 750 ft 13 kts 140°
2026-05-03 21:49 41.40436 -81.86107 751 ft 8 kts 140°
2026-05-03 21:49 41.40367 -81.86030 751 ft 15 kts 140°
2026-05-03 21:49 41.40302 -81.85953 752 ft 9 kts 118°
2026-05-03 21:49 41.40334 -81.85872 752 ft 14 kts 49°
2026-05-03 21:50 41.40406 -81.85759 752 ft 16 kts 49°
2026-05-03 21:50 41.40479 -81.85645 752 ft 16 kts 50°
2026-05-03 21:50 41.40548 -81.85535 752 ft 16 kts 50°
2026-05-03 21:50 41.40621 -81.85419 752 ft 16 kts 51°
2026-05-03 21:51 41.40651 -81.85280 752 ft 18 kts 92°
2026-05-03 21:51 41.40642 -81.85074 752 ft 25 kts 93°
2026-05-03 21:51 41.40632 -81.84845 752 ft 24 kts 93°
2026-05-03 21:51 41.40624 -81.84645 752 ft 20 kts 93°
2026-05-03 21:52 41.40618 -81.84482 752 ft 8 kts 85°
2026-05-03 21:52 41.40639 -81.84437 752 ft 17 kts 30°
2026-05-03 21:52 41.40768 -81.84433 752 ft 19 kts 359°
2026-05-03 21:52 41.40891 -81.84414 752 ft 18 kts 36°
2026-05-03 21:53 41.40975 -81.84295 752 ft 17 kts 52°
2026-05-03 21:53 41.41049 -81.84183 752 ft 15 kts 21°
2026-05-03 21:53 41.41096 -81.84157 754 ft 4 kts 22°
2026-05-03 21:53 41.41107 -81.84151 754 ft 2 kts 22°